Miscellaneous Local Product
Issued by NWS North Platte, NE

Home | Current Version | Previous Version | Graphics & Text | Print | Product List | Glossary On
Versions: 1 2 3 4 5 6 7 8 9 10 11 12 13 14 15 16 17 18 19 20 21 22 23 24 25 26 27 28 29 30 31 32 33 34 35 36 37 38 39 40 41 42 43 44 45 46 47 48 49 50
000
AXUS43 KLBF 222110
MISLBF


WESTERN AND NORTH CENTRAL NEBRASKA HOURLY WEATHER ROUNDUP
NATIONAL WEATHER SERVICE NORTH PLATTE NE
300 PM CST WED NOV 22 2017

NOTE: "FAIR" INDICATES FEW OR NO CLOUDS BELOW 12,000 FEET WITH NO
SIGNIFICANT WEATHER AND/OR OBSTRUCTIONS TO VISIBILITY.

NOTE: STATIONS NOT REPORTING VARIABLES SUCH AS SKY/WEATHER OR
PRESSURE ARE PROVIDED BY RAWS AND APRS NETWORKS AND ARE NOT UNDER
NATIONAL WEATHER SERVICE QUALITY CONTROL.

...OBSERVATIONS IN AND NEAR THE EASTERN PANHANDLE OF NEBRASKA...

CITY           SKY/WX    TMP DP  RH WIND       PRES   REMARKS
PINE RIDGE     SUNNY     69  37  30 W8        30.03F
GORDON         FAIR      67  36  31 W8        30.04S
CHADRON        CLOUDY    64  38  38 W9        30.05F
ALLIANCE       SUNNY     70  36  28 NW14      30.08S
SIDNEY         SUNNY     69  37  30 N18G26    30.13F
CRESCENT LAKE    N/A     68  35  29 NW13        N/A
$$

...OBSERVATIONS IN NORTHERN NEBRASKA AND FAR SOUTHERN SOUTH DAKOTA...

CITY           SKY/WX    TMP DP  RH WIND       PRES   REMARKS
WINNER         FAIR      67  38  34 NW7       29.93F
VALENTINE      SUNNY     72  36  26 NW15G21   29.97F
THEDFORD       SUNNY     69  37  31 W12       30.02F
AINSWORTH      SUNNY     68  37  31 NW17      29.98F
O`NEILL        SUNNY     52  29  42 S12G18    30.00S
ORD            SUNNY     55  28  35 S12       30.03F
BROKEN BOW     SUNNY     61  33  35 SW13      30.03F
VALENTINE NWR    N/A     69  34  27 W13         N/A
HALSEY           N/A     68  35  29 W7          N/A
BUTTE            N/A     56  30  37 S8          N/A
CHAMBERS         N/A     53  29  40 W7          N/A
EWING            N/A     49  28  43 S13         N/A
$$

...OBSERVATIONS IN SOUTHWEST NEBRASKA AND FAR NORTHEAST COLORADO...

CITY           SKY/WX    TMP DP  RH WIND       PRES   REMARKS
HOLYOKE        FAIR      73  37  27 NW14      30.11S
IMPERIAL       SUNNY     71  38  29 NW16      30.08F
OGALLALA       SUNNY     70  37  30 NW13      30.07S
NORTH PLATTE   SUNNY     67  38  34 W9        30.05F
MCCOOK         SUNNY     67  38  34 W6        30.07F
LEXINGTON      SUNNY     59  32  35 SW12      30.07F
STAPLETON        N/A     67  39  35 CALM        N/A
GOTHENBURG       N/A     61  32  34 SW6         N/A
CALLAWAY         N/A     62  38  41 SW12        N/A
$$

...OBSERVATIONS IN CENTRAL LINCOLN COUNTY AREA...

CITY           SKY/WX    TMP DP  RH WIND       PRES   REMARKS
N.P. AIRPORT   SUNNY     67  38  34 W9        30.05F
N.P. DOWNTOWN    N/A     66  41  40 W3          N/A
N.P. SOUTHEAST   N/A     66  40  39 W3          N/A
N.P. HILLCREST   N/A     66  41  40 SW9         N/A
$$

...SOME OBSERVATIONS FROM AROUND THE REGION...

CITY           SKY/WX    TMP DP  RH WIND       PRES   REMARKS
DENVER         PTSUNNY   68  33  27 NW6       30.21S
COPPER MTN     SNOW      34  32  93 MISG      30.59S VSB 1/4
GRAND JUNCTION SUNNY     60  33  36 VRB5      30.39F
LARAMIE        CLOUDY    53  38  56 W28G40    30.30S
CHEYENNE       CLOUDY    60  38  43 NW25G36   30.23S
CASPER         CLOUDY    56  39  53 SW20      30.23R
BISMARCK       SUNNY     56  31  38 VRB3      29.82S
RAPID CITY     CLOUDY    68  37  32 NW22      29.99S
PIERRE         CLOUDY    56  32  40 W3        29.89F
SIOUX FALLS    CLOUDY    38  18  44 S20       30.03F WCI  28
OMAHA          CLOUDY    40  15  36 S17       30.16F WCI  31
GRAND ISLAND   SUNNY     49  23  36 S16       30.09F
SCOTTSBLUFF    SUNNY     71  36  27 NW13      30.10F
KANSAS CITY    PTSUNNY   40  15  36 SW8       30.26F WCI  34
HILL CITY      SUNNY     64  33  31 SW12      30.11F
WICHITA        MOSUNNY   47  19  33 S10       30.26F
DODGE CITY     SUNNY     61  29  29 SW17G28   30.17F
OKLAHOMA CITY  MOSUNNY   48  15  26 VRB3      30.30F
DALLAS         MOSUNNY   56  17  21 N13       30.28F
AMARILLO       CLOUDY    60  29  30 SW15      30.24F
$$




USA.gov is the U.S. government's official web portal to all federal, state and local government web resources and services.